| time (UTC) | temp F | wind direction | speed knots | gust knots | rain 1hr in | rain 24hr in | rain mn in | humidity % | barometer mb |
| 20260509041618 | 46 | 175 | 4.3 | 0.0 | 0.00 | 0.00 | 0.00 | 54 | 978.5 |
| 20260509040156 | 47 | 178 | 4.3 | 0.0 | 0.00 | 0.00 | 0.00 | 54 | 978.5 |
| 20260509034618 | 47 | 192 | 4.3 | 0.0 | 0.00 | 0.00 | 0.00 | 47 | 979.4 |
| 20260509033134 | 47 | 189 | 4.3 | 0.0 | 0.00 | 0.00 | 0.00 | 46 | 980.1 |
| 20260509031618 | 48 | 180 | 4.3 | 0.0 | 0.00 | 0.00 | 0.00 | 46 | 980.1 |
| 20260509030152 | 49 | 180 | 5.2 | 0.0 | 0.00 | 0.00 | 0.00 | 46 | 980.1 |
| 20260509024617 | 49 | 168 | 4.3 | 0.0 | 0.00 | 0.00 | 0.00 | 30 | 980.2 |
| 20260509023136 | 50 | 178 | 4.3 | 0.0 | 0.00 | 0.00 | 0.00 | 38 | 980.4 |
| 20260509021618 | 50 | 192 | 4.3 | 0.0 | 0.00 | 0.00 | 0.00 | 38 | 980.3 |
| 20260509020148 | 51 | 211 | 2.6 | 0.0 | 0.00 | 0.00 | 0.00 | 38 | 980.3 |
| 20260509014616 | 51 | 223 | 3.5 | 0.0 | 0.00 | 0.00 | 0.00 | 41 | 980.0 |
| 20260509013132 | 52 | 235 | 3.5 | 0.0 | 0.00 | 0.00 | 0.00 | 41 | 980.0 |
| 20260509011617 | 53 | 248 | 3.5 | 0.0 | 0.00 | 0.00 | 0.00 | 41 | 980.1 |
| 20260509010145 | 54 | 264 | 3.5 | 0.0 | 0.00 | 0.00 | 0.00 | 41 | 980.1 |
| 20260509004615 | 55 | 273 | 3.5 | 0.0 | 0.00 | 0.00 | 0.00 | 35 | 979.8 |
| 20260509003134 | 55 | 265 | 4.3 | 0.0 | 0.00 | 0.00 | 0.00 | 34 | 981.0 |
| 20260509001616 | 56 | 270 | 3.5 | 0.0 | 0.00 | 0.00 | 0.00 | 34 | 981.0 |
| 20260509000200 | 57 | 270 | 3.5 | 0.0 | 0.00 | 0.00 | 0.00 | 34 | 981.0 |
| 20260508234618 | 58 | 268 | 5.2 | 0.0 | 0.00 | 0.00 | 0.00 | 27 | 980.3 |
| 20260508233138 | 59 | 267 | 6.1 | 0.0 | 0.00 | 0.00 | 0.00 | 25 | 980.9 |
| 20260508231620 | 60 | 267 | 7.0 | 0.0 | 0.00 | 0.00 | 0.00 | 25 | 980.9 |
| 20260508230143 | 60 | 273 | 7.0 | 0.0 | 0.00 | 0.00 | 0.00 | 25 | 980.9 |
| 20260508224619 | 60 | 276 | 7.8 | 0.0 | 0.00 | 0.00 | 0.00 | 25 | 980.8 |
| 20260508223138 | 61 | 274 | 8.7 | 0.0 | 0.00 | 0.00 | 0.00 | 22 | 981.8 |
| 20260508221620 | 60 | 276 | 8.7 | 0.0 | 0.00 | 0.00 | 0.00 | 22 | 981.8 |
| 20260508220145 | 61 | 276 | 8.7 | 0.0 | 0.00 | 0.00 | 0.00 | 22 | 981.8 |
| 20260508214619 | 61 | 274 | 9.6 | 0.0 | 0.00 | 0.00 | 0.00 | 23 | 982.3 |
| 20260508213137 | 61 | 269 | 9.6 | 0.0 | 0.00 | 0.00 | 0.00 | 23 | 981.7 |
| 20260508211620 | 62 | 256 | 9.6 | 0.0 | 0.00 | 0.00 | 0.00 | 23 | 981.8 |
| 20260508210149 | 62 | 255 | 9.6 | 0.0 | 0.00 | 0.00 | 0.00 | 23 | 981.8 |
| 20260508204620 | 62 | 251 | 9.6 | 0.0 | 0.00 | 0.00 | 0.00 | 28 | 982.1 |
| 20260508203138 | 62 | 249 | 9.6 | 0.0 | 0.00 | 0.00 | 0.00 | 27 | 981.7 |
| 20260508201620 | 63 | 246 | 8.7 | 0.0 | 0.00 | 0.00 | 0.00 | 27 | 981.7 |
| 20260508200146 | 63 | 237 | 8.7 | 0.0 | 0.00 | 0.00 | 0.00 | 27 | 981.7 |
| 20260508194620 | 63 | 229 | 7.0 | 0.0 | 0.00 | 0.00 | 0.00 | 26 | 981.9 |
| 20260508193135 | 62 | 236 | 7.8 | 0.0 | 0.00 | 0.00 | 0.00 | 26 | 981.9 |
| 20260508191619 | 63 | 263 | 8.7 | 0.0 | 0.00 | 0.00 | 0.00 | 26 | 982.0 |
| 20260508190143 | 63 | 257 | 7.0 | 0.0 | 0.00 | 0.00 | 0.00 | 26 | 982.0 |
| 20260508184620 | 62 | 250 | 7.0 | 0.0 | 0.00 | 0.00 | 0.00 | 27 | 982.5 |
| 20260508183139 | 62 | 236 | 8.7 | 0.0 | 0.00 | 0.00 | 0.00 | 31 | 982.1 |
| 20260508181619 | 61 | 238 | 8.7 | 0.0 | 0.00 | 0.00 | 0.00 | 31 | 982.1 |
| 20260508180151 | 61 | 240 | 7.8 | 0.0 | 0.00 | 0.00 | 0.00 | 31 | 982.1 |
| 20260508174620 | 61 | 239 | 7.8 | 0.0 | 0.00 | 0.00 | 0.00 | 33 | 983.1 |
| 20260508173138 | 60 | 242 | 7.8 | 0.0 | 0.00 | 0.00 | 0.00 | 33 | 983.1 |
| 20260508171620 | 60 | 238 | 7.8 | 0.0 | 0.00 | 0.00 | 0.00 | 33 | 983.1 |
| 20260508170145 | 60 | 243 | 8.7 | 0.0 | 0.00 | 0.00 | 0.00 | 33 | 983.1 |
| 20260508164619 | 59 | 243 | 7.8 | 0.0 | 0.00 | 0.00 | 0.00 | 34 | 983.3 |
| 20260508163138 | 59 | 238 | 7.0 | 0.0 | 0.00 | 0.00 | 0.00 | 34 | 983.6 |
| 20260508161620 | 58 | 238 | 6.1 | 0.0 | 0.00 | 0.00 | 0.00 | 34 | 983.5 |
| 20260508160150 | 57 | 234 | 6.1 | 0.0 | 0.00 | 0.00 | 0.00 | 34 | 983.5 |
| 20260508154620 | 56 | 228 | 5.2 | 0.0 | 0.00 | 0.00 | 0.00 | 45 | 984.5 |
| 20260508153140 | 55 | 207 | 5.2 | 0.0 | 0.00 | 0.00 | 0.00 | 52 | 983.5 |
| 20260508151620 | 54 | 202 | 5.2 | 0.0 | 0.00 | 0.00 | 0.00 | 52 | 983.5 |
| 20260508150150 | 53 | 205 | 4.3 | 0.0 | 0.00 | 0.00 | 0.00 | 52 | 983.5 |
| 20260508144620 | 52 | 201 | 4.3 | 0.0 | 0.00 | 0.00 | 0.00 | 67 | 983.7 |
| 20260508143138 | 52 | 201 | 4.3 | 0.0 | 0.00 | 0.00 | 0.00 | 63 | 983.8 |
| 20260508141620 | 51 | 192 | 4.3 | 0.0 | 0.00 | 0.00 | 0.00 | 63 | 983.8 |
| 20260508140158 | 50 | 188 | 3.5 | 0.0 | 0.00 | 0.00 | 0.00 | 65 | 983.6 |
| 20260508134620 | 49 | 186 | 3.5 | 0.0 | 0.00 | 0.00 | 0.00 | 73 | 983.5 |
| 20260508133134 | 48 | 189 | 4.3 | 0.0 | 0.00 | 0.00 | 0.00 | 73 | 983.5 |
| 20260508131620 | 46 | 191 | 4.3 | 0.0 | 0.00 | 0.00 | 0.00 | 73 | 983.5 |
| 20260508130154 | 45 | 191 | 4.3 | 0.0 | 0.00 | 0.00 | 0.00 | 73 | 983.5 |
| 20260508124620 | 44 | 192 | 4.3 | 0.0 | 0.00 | 0.00 | 0.00 | 85 | 982.8 |
| 20260508123139 | 43 | 195 | 4.3 | 0.0 | 0.00 | 0.00 | 0.00 | 85 | 983.4 |
| 20260508121620 | 41 | 193 | 3.5 | 0.0 | 0.00 | 0.00 | 0.00 | 85 | 983.4 |
| 20260508120212 | 40 | 189 | 1.7 | 0.0 | 0.00 | 0.00 | 0.00 | 85 | 983.4 |
| 20260508114619 | 38 | 193 | 1.7 | 0.0 | 0.00 | 0.00 | 0.00 | 84 | 982.9 |
| 20260508113141 | 37 | 184 | 2.6 | 0.0 | 0.00 | 0.00 | 0.00 | 77 | 983.5 |
| 20260508111619 | 37 | 167 | 1.7 | 0.0 | 0.00 | 0.00 | 0.00 | 77 | 983.6 |
| 20260508110145 | 37 | 156 | 2.6 | 0.0 | 0.00 | 0.00 | 0.00 | 77 | 983.6 |
| 20260508104621 | 37 | 141 | 2.6 | 0.0 | 0.00 | 0.00 | 0.00 | 77 | 982.5 |
| 20260508103139 | 37 | 132 | 1.7 | 0.0 | 0.00 | 0.00 | 0.00 | 76 | 983.6 |
| 20260508101623 | 37 | 131 | 1.7 | 0.0 | 0.00 | 0.00 | 0.00 | 76 | 983.7 |
| 20260508100146 | 38 | 114 | 1.7 | 0.0 | 0.00 | 0.00 | 0.00 | 76 | 983.7 |
| 20260508094621 | 38 | 110 | 1.7 | 0.0 | 0.00 | 0.00 | 0.00 | 76 | 982.9 |
| 20260508093135 | 38 | 107 | 1.7 | 0.0 | 0.00 | 0.00 | 0.00 | 80 | 983.6 |
| 20260508091622 | 38 | 153 | 0.9 | 0.0 | 0.00 | 0.00 | 0.00 | 80 | 983.6 |
| 20260508090150 | 38 | 146 | 0.9 | 0.0 | 0.00 | 0.00 | 0.00 | 80 | 983.6 |
| 20260508084621 | 38 | 158 | 0.9 | 0.0 | 0.00 | 0.00 | 0.00 | 83 | 983.1 |
| 20260508083139 | 39 | 189 | 0.9 | 0.0 | 0.00 | 0.00 | 0.00 | 85 | 982.9 |
| 20260508081621 | 39 | 198 | 3.5 | 0.0 | 0.00 | 0.00 | 0.00 | 85 | 982.9 |
| 20260508080153 | 39 | 183 | 3.5 | 0.0 | 0.00 | 0.00 | 0.00 | 85 | 982.9 |
| 20260508074622 | 39 | 186 | 3.5 | 0.0 | 0.00 | 0.00 | 0.00 | 88 | 983.9 |
| 20260508073140 | 39 | 196 | 3.5 | 0.0 | 0.00 | 0.00 | 0.00 | 88 | 983.9 |
| 20260508071620 | 40 | 204 | 2.6 | 0.0 | 0.00 | 0.00 | 0.00 | 88 | 983.9 |
| 20260508070152 | 40 | 204 | 2.6 | 0.0 | 0.00 | 0.00 | 0.00 | 88 | 983.9 |
| 20260508064621 | 40 | 202 | 3.5 | 0.0 | 0.00 | 0.00 | 0.00 | 84 | 983.4 |
| 20260508063136 | 41 | 194 | 3.5 | 0.0 | 0.00 | 0.00 | 0.00 | 85 | 983.8 |
| 20260508061620 | 41 | 207 | 2.6 | 0.0 | 0.00 | 0.00 | 0.00 | 85 | 983.8 |
| 20260508060213 | 41 | 214 | 2.6 | 0.0 | 0.00 | 0.00 | 0.00 | 85 | 983.8 |
| 20260508054619 | 41 | 215 | 2.6 | 0.0 | 0.00 | 0.00 | 0.00 | 81 | 984.6 |
| 20260508053140 | 42 | 201 | 3.5 | 0.0 | 0.00 | 0.00 | 0.00 | 85 | 984.3 |
| 20260508051619 | 42 | 193 | 3.5 | 0.0 | 0.00 | 0.00 | 0.00 | 85 | 984.3 |
| 20260508050154 | 42 | 196 | 3.5 | 0.0 | 0.00 | 0.00 | 0.00 | 85 | 984.3 |
| 20260508044619 | 42 | 200 | 3.5 | 0.0 | 0.00 | 0.00 | 0.00 | 82 | 984.6 |
| 20260508043135 | 43 | 227 | 3.5 | 0.0 | 0.00 | 0.00 | 0.00 | 81 | 984.0 |